Weather past 2 weeks in Willemstad, Curaçao

Now
88 °F

Passing clouds.


Feels Like: 94 °F
Forecast: 79 / 86 °F
Wind: 15 mph from East

Location: Hato Airport - Curacao

Current Time: May 27, 2015 at 12:39:56 PM

Latest Report: May 27, 2015 at 12:00 PM


Visibility: N/A

Pressure: 29.92 "Hg

Humidity: 59%

Dew point: 72 °F

Location of WillemstadLocation

Historic Weather in Willemstad — Graph

°F

Willemstad temperature yesterday

Maximum temperature yesterday: 88 °F (at 1:00 PM)
Minimum temperature yesterday: 79 °F (at 1:00 AM)
Average temperature yesterday: 82 °F

Past Weeks' High & Low Weather Summary

 TemperatureHumidityPressure
High90 °F (May 20, 12:00 PM)89% (May 19, 7:00 AM)30.04 "Hg (May 19, 7:00 AM)
Low79 °F (May 13, 3:00 AM)55% (May 16, 2:00 PM)29.83 "Hg (May 20, 5:00 PM)
Average83 °F75%29.95 "Hg
* Reported May 12 11:00 AM — May 27 11:00 AM, Willemstad, Weather by CustomWeather, © 2015

Note: Actual official high and low records may vary slightly from our data, if they occured in-between our weather recording intervals... More about our weather records

Advertising

Willemstad weather history for previous 24 hours

 ConditionsComfort  
Time TempWeatherWind HumidityBarometerVisibility
11:00 AM
Wed, May 27
86 °FScattered clouds.14 mph66%29.95 "HgN/A
10:00 AM86 °FScattered clouds.15 mph66%29.95 "HgN/A
9:00 AM84 °FScattered clouds.13 mph70%29.95 "HgN/A
8:00 AM82 °FScattered clouds.14 mph74%29.95 "HgN/A
7:00 AM81 °FPassing clouds.13 mph79%29.92 "HgN/A
6:00 AM79 °FPassing clouds.13 mph79%29.92 "HgN/A
2:00 AM79 °FPassing clouds.13 mph84%29.89 "HgN/A
1:00 AM79 °FPassing clouds.13 mph84%29.92 "HgN/A
11:00 PM
Tue, May 26
81 °FPassing clouds.13 mph79%29.95 "HgN/A
10:00 PM81 °FPassing clouds.10 mph79%29.95 "HgN/A
9:00 PM81 °FPassing clouds.12 mph79%29.92 "HgN/A
8:00 PM81 °FPassing clouds.13 mph79%29.92 "HgN/A
7:00 PM81 °FPassing clouds.14 mph74%29.89 "HgN/A
6:00 PM84 °FPassing clouds.14 mph66%29.89 "HgN/A
5:00 PM86 °FPassing clouds.14 mph66%29.89 "HgN/A
4:00 PM86 °FPassing clouds.15 mph62%29.89 "HgN/A
3:00 PM86 °FPassing clouds.14 mph66%29.92 "HgN/A
2:00 PM86 °FPassing clouds.14 mph62%29.92 "HgN/A
1:00 PM88 °FPassing clouds.14 mph59%29.95 "HgN/A
12:00 PM86 °FPassing clouds.13 mph66%29.98 "HgN/A
Weather by CustomWeather, © 2015

See weather overviewHow to use our weather pages